Regional Weather Roundup
Issued by NWS Sterling, VA

Home | Current Version | Previous Version | Text Only | Print | Product List | Glossary Off
Versions: 1 2 3 4 5 6 7 8 9 10 11 12 13 14 15 16 17 18 19 20 21 22 23 24 25 26 27 28 29 30 31 32 33 34 35 36 37 38 39 40 41 42 43 44 45 46 47 48 49 50

000
ASUS41 KLWX 220610
RWRLWX

REGIONAL WEATHER ROUNDUP
NATIONAL WEATHER SERVICE BALTIMORE MD/WASHINGTON DC
100 AM EST MON DEC 22 2014

Note: "FAIR" indicates few or no clouds below 12,000 feet
with no significant weather and/or obstructions to visibility.
 TC=TEMPERATURE CELSIUS

 * =Non NWS site. Station does not report precipitation (e.g. rain,
    snow, etc.), thunder, or fog.

DCZ001-MDZ009-015-VAZ040>042-051-053>054-220700-
WASHINGTON METRO

CITY           SKY/WX    TMP DP  RH WIND       PRES   REMARKS
WASHINGTON NAT MOCLDY    34  25  69 NE3       30.35R
DULLES         PTCLDY    24  20  84 CALM      30.32S
ANDREWS AFB    PTCLDY    27  22  82 CALM      30.32R
FT BELVOIR     PTCLDY    26  23  89 CALM      30.34S
QUANTICO       MOCLDY    30  25  81 VRB5      30.34F
COLLEGE PARK*  PTCLDY    27  27 100 CALM      30.33S
LEESBURG*      CLEAR     28  27  93 CALM      30.33S
MANASSAS*      PTCLDY    23  23 100 CALM      30.33S
GAITHERSBURG*  CLEAR     25  19  80 CALM      30.35R

$$

MDZ006>007-011-014-220700-
BALTIMORE METRO

CITY           SKY/WX    TMP DP  RH WIND       PRES   REMARKS
BWI AIRPORT    PTCLDY    29  22  75 CALM      30.32S
MD SCIENCE CTR   N/A     32  23  69 MISG      30.32F
MARTIN STATE   CLEAR     28  27  93 CALM      30.35S
ANNAPOLIS      PTCLDY    31  27  85 CALM      30.33S
FORT MEADE*    CLEAR     23  23 100 CALM      30.35S

$$

MDZ012-015-019>023-220700-
MARYLAND EASTERN SHORE

CITY           SKY/WX    TMP DP  RH WIND       PRES   REMARKS
OCEAN CITY     MOCLDY    29  25  85 N6        30.30F FOG
SALISBURY      CLOUDY    31  24  75 NW3       30.31F
BAY BRIDGE AP*   N/A     32  27  80 CALM      30.33S
CAMBRIDGE*     MOCLDY    32  27  80 NE3       30.31S
EASTON*        MOCLDY    29  26  89 CALM      30.35F

$$

MDZ017>025-220700-
SOUTHERN MARYLAND

CITY           SKY/WX    TMP DP  RH WIND       PRES   REMARKS
PATUXENT RIVER CLOUDY    32  26  78 CALM      30.32S
ST INIGOES     CLOUDY    34  27  75 N3        30.31S
LEONARDTOWN*   CLOUDY    30  27  86 CALM      30.33S

$$

MDZ003>005-220700-
NORTH CENTRAL MARYLAND

CITY           SKY/WX    TMP DP  RH WIND       PRES   REMARKS
FREDERICK*     CLEAR     23  19  86 CALM      30.35S FOG
HAGERSTOWN APT CLEAR     25  20  81 CALM      30.29F
WESTMINSTER*   PTCLDY    25  21  86 CALM      30.29S

$$

MDZ501>502-220700-
WESTERN MARYLAND

CITY           SKY/WX    TMP DP  RH WIND       PRES   REMARKS
OAKLAND*       PTCLDY    23 N/A N/A SE16      30.12S HAZE    WCI  10
CUMBERLAND*    PTCLDY    27  23  86 CALM      30.32R

$$

VAZ025>031-220700-
SHENANDOAH VALLEY

CITY           SKY/WX    TMP DP  RH WIND       PRES   REMARKS
WINCHESTER*    PTCLDY    27  21  80 CALM      30.28F
FRONT ROYAL*   FAIR      27  23  86 CALM      30.28S
LURAY*         CLOUDY    27  27 100 CALM      30.26F
NEW MARKET*    CLOUDY    25  23  92 CALM      30.26F
STAUNTON*      CLOUDY    32  27  82 CALM      30.27F
WAYNESBORO*    CLOUDY    33  26  73 SE6       30.24F

$$

WVZ021-048>050-054>055-220700-
EASTERN WEST VIRGINIA PANHANDLE

CITY           SKY/WX    TMP DP  RH WIND       PRES   REMARKS
MARTINSBURG    CLEAR     24  18  77 CALM      30.30S
PETERSBURG*    CLOUDY    26  25  97 CALM      30.26F FOG

$$

VAZ036>039-050-220700-
CENTRAL FOOTHILLS

CITY           SKY/WX    TMP DP  RH WIND       PRES   REMARKS
CHARLOTTESVILL CLOUDY    33  26  75 CALM      30.29S
CULPEPER*      MOCLDY    25  25 100 CALM      30.31S
ORANGE*        CLOUDY    32  30  93 CALM      30.31S
GORDONSVILLE*  CLOUDY    30  27  90 CALM      30.29F
WARRENTON*     FAIR      25  25 100 CALM      30.31S

$$

VAZ055>057-220700-
NORTH AND CENTRAL PIEDMONT

CITY           SKY/WX    TMP DP  RH WIND       PRES   REMARKS
FREDERICKSBRG* CLOUDY    31  28  90 CALM      30.31F
STAFFORD*      MOCLDY    26  26 100 CALM      30.35F

$$

NCZ024-NYZ072-PAZ021-071-VAZ022-071-220700-
OTHER REGIONAL OBSERVATIONS

CITY           SKY/WX    TMP DP  RH WIND       PRES   REMARKS
NEW YORK CITY  CLOUDY    35  29  78 NE5       30.34F
PHILADELPHIA   PTCLDY    29  21  72 N3        30.32F
PITTSBURGH     PTCLDY    26  22  84 E3        30.15F
ROANOKE        CLOUDY    38  28  67 E9        30.25F
RICHMOND       CLOUDY    35  28  75 NE5       30.29F
RALEIGH        LGT RAIN  40  32  73 NE8       30.22F

$$

ANZ530>537-220700-
MARINE OBSERVATIONS

STATION/POSITION TIME  TEMP    WIND        PRES
                       AIR SEA DIR/SP/G
                 (UTC) (F)     (DEG/KT/KT) (MB)
THOMAS PT LIGHT  0600   34 40   50/  7/  8 1028.1R
BALT KEY BRIDGE  0600   32      30/  5/  5 1027.0F
COVE POINT       0600   34      70/ 10/ 11 1026.3F
LEWISETTA        0600   38 41   70/  8/ 11 1026.0F
SOLOMONS ISLAND  0600      42                N/A

$$




USA.gov is the U.S. government's official web portal to all federal, state and local government web resources and services.